Location: Gu�n�
(14.8346°N, 3.1512°W)
Time: 04:23:36
(UTC+00:00)

Daily predictions for brighter satellites

Satellite Brightness Start Highest point End
(mag) Time Altitude Azimuth Time Altitude Azimuth Time Altitude Azimuth
Ariane H10-3 4.4 03:09:56 44° SSE 03:10:20 44° SSE 03:51:32 10° E
Ariane H10-3 4.4 03:09:56 44° SSE 03:10:20 44° SSE 03:51:31 10° E
Ariane H10-3 4.4 03:09:57 44° SSE 03:10:20 44° SSE 03:51:31 10° E
Ariane H10-3 4.4 03:09:56 44° SSE 03:10:21 44° SSE 03:51:32 10° E
Cosmos 2333 Rocket 4.3 03:29:17 22° SE 03:29:17 22° SE 03:31:24 10° SE
CZ-3B R/B 3.3 03:48:00 75° W 03:49:16 84° SSW 03:58:59 10° ESE
Cosmos 2219 Rocket 3.4 03:57:45 35° SSE 03:57:45 35° SSE 04:00:58 10° SSE
ARIANE 5 DEB (SYLDA) 4.5 04:01:40 22° S 04:01:40 22° S 04:05:38 10° SE
COSMOS 2428 3.5 04:20:25 41° SSW 04:20:25 41° SSW 04:24:12 10° S
Centaur D AC-29 3.3 04:29:24 17° SSW 04:29:24 17° SSW 04:30:38 10° S
Meteosat 1 Rocket2 4.4 04:31:15 36° NNE 04:31:37 36° NNE 04:37:43 10° E
GPS 2-15 Rocket1 3.1 04:39:39 79° SW 04:39:55 85° SSE 04:44:52 10° ENE
Cosmos 2251 Rocket 3.8 04:37:50 31° N 04:40:16 63° ENE 04:45:26 10° SSE
Cosmos 1932 4.3 04:38:17 10° SSW 04:44:24 66° WNW 04:50:41 10° NNE
GPS 2-17 Rocket1 3.5 04:48:34 47° N 04:48:52 48° N 04:53:29 10° E
STARLINK-43 3.4 04:51:07 69° NE 04:51:12 70° NE 04:54:53 10° SE
CZ-4B R/B 2.9 04:53:09 61° W 04:53:09 61° W 04:57:15 10° SSW
Delta 198 4.1 04:54:48 35° N 04:54:48 35° N 04:57:37 10° NE
Cosmos 1470 Rocket 3.4 04:49:39 10° S 04:54:06 87° W 04:58:34 10° N
Abrixas rocket 2.8 04:54:46 50° ESE 04:54:46 50° ESE 04:57:12 10° SE
ARIANE 5 R/B 4.1 04:49:33 20° WSW 04:54:41 31° SSW 04:58:03 10° SE
Orbus 7S? 4.3 04:47:04 10° SSW 04:54:50 66° SE 04:58:19 10° NE
Cosmos 1371 Rocket 4.1 04:50:11 10° SSW 04:55:16 47° WNW 05:00:19 10° N
Meteor PRIRODA 3.4 05:00:31 43° N 05:01:34 71° WNW 05:05:11 10° SSW
Okean O Rocket 3.6 04:59:45 10° NE 05:03:37 30° E 05:07:29 10° SSE
SL-16 R/B 3.7 05:02:44 10° N 05:07:51 34° ENE 05:12:55 10° SE
Cosmos 2034 Rocket 3.9 05:02:32 10° SSW 05:08:42 65° W 05:14:56 10° N
Cosmos 2333 Rocket 3.9 05:11:21 15° WSW 05:11:21 15° WSW 05:13:22 10° SW
FALCON 9 R/B 4.4 05:07:47 17° NNW 05:12:35 27° NNE 05:30:00 10° ENE
Cosmos 1862 Rocket 4.3 05:09:19 10° N 05:13:42 55° E 05:18:05 10° SSE
Meteor 1-27 Rocket 4.3 05:09:03 10° N 05:14:54 63° E 05:20:39 10° SSE
METEOR-M 4.2 05:15:04 10° NNE 05:20:25 80° ESE 05:25:45 10° S
SEDSat Delta rocket 2.8 05:18:49 28° NW 05:20:55 81° NNE 05:24:58 10° ESE
Cosmos 2237 Rocket 2.5 05:17:25 20° NW 05:20:59 46° WSW 05:26:19 10° S
Delta 2 Rocket 4.2 05:20:34 22° WNW 05:25:05 77° NNE 05:32:47 10° ESE
BREEZE-M DEB (TANK) 2.5 05:25:52 10° SW 05:29:18 61° NW 05:31:35 10° NNE
Cosmos 1707 Rocket 4.4 05:27:48 20° NW 05:29:45 28° W 05:33:28 10° SSW
SKYMED 2 4.4 05:29:49 10° SSE 05:34:02 52° ENE 05:38:14 10° N
Cosmos 2263 Rocket 2.4 05:39:16 10° SW 05:44:36 44° WNW 05:49:54 10° N
CZ-3B R/B 3.9 05:37:22 11° W 05:46:41 32° SW 05:53:26 10° SSE
Cosmos 1484 Rocket 4.2 05:46:10 10° NNW 05:48:47 18° WNW 05:51:22 10° WSW
BREEZE-M DEB (TANK) 3.6 05:47:47 13° WNW 05:50:13 35° SW 05:56:49 10° SSE
SJ-7 4.4 05:46:32 10° NNE 05:50:30 82° E 05:54:28 10° S
GPS 2-14 Rocket1 4.5 05:48:31 10° WSW 05:51:40 22° SSW 05:54:53 10° SSE
CZ-4C R/B 4.3 05:44:40 10° N 05:52:10 42° ENE 05:59:59 10° SE
Cosmos 1092 Rocket 4.3 05:48:00 10° N 05:54:06 73° E 06:00:13 10° S
Meteor 1-14 Rocket 4.3 05:50:42 10° S 05:56:29 79° W 06:02:25 10° N
Geosat 4.2 05:52:51 10° SSE 05:57:51 76° ENE 06:02:51 10° NNW
Lacrosse 5 2.4 05:55:44 10° NNW 06:00:42 59° ENE 06:05:40 10° SE
Cosmos 44 3.3 05:56:32 10° SSW 06:01:36 81° WNW 06:06:25 10° NNE
Cosmos 1346 Rocket 2.8 05:59:45 10° S 06:03:38 88° E 06:07:29 10° N
Cosmos 1190 Rocket 4.2 06:00:12 10° N 06:05:25 83° ENE 06:10:41 10° SSE
